Location: Caltech
(34.1382°N, 118.1253°W)
Time: 20:19:26
(UTC-07:00)

Cosmos 2084 - Visible Passes

Search period start: 29 June 2016 00:00
Search period end: 09 July 2016 00:00
Orbit: 506 x 681 km, 62.8° (Epoch: 29 June)

Date Brightness Start Highest point End Pass type
(mag) Time Alt. Az. Time Alt. Az. Time Alt. Az.
29 Jun 4.4 04:48:44 10° S 04:52:22 38° ESE 04:55:57 10° NE visible
30 Jun 3.2 04:57:34 10° SSW 05:01:28 84° ESE 05:05:18 10° NNE visible
01 Jul 5.9 03:30:37 10° SE 03:31:34 11° ESE 03:32:31 10° E visible
01 Jul 3.7 05:06:55 10° SW 05:10:38 46° NW 05:14:22 10° NNE visible
02 Jul 5.0 03:39:27 19° SE 03:40:32 22° ESE 03:43:33 10° ENE visible
02 Jul 4.7 05:16:45 10° WSW 05:19:55 24° NW 05:23:05 10° N visible
03 Jul 3.9 03:48:40 37° SSE 03:49:35 45° ESE 03:53:15 10° NE visible
04 Jul 3.1 03:57:47 51° SW 03:58:42 83° WNW 04:02:32 10° NNE visible
05 Jul 6.1 02:30:16 11° E 02:30:16 11° E 02:30:28 10° E visible
05 Jul 3.9 04:06:52 32° W 04:07:53 39° NW 04:11:31 10° NNE visible
06 Jul 5.5 02:39:18 19° ENE 02:39:18 19° ENE 02:40:57 10° ENE visible
06 Jul 4.9 04:15:54 18° WNW 04:17:11 21° NW 04:20:10 10° N visible
07 Jul 4.8 02:48:16 32° ENE 02:48:16 32° ENE 02:50:32 10° NE visible
07 Jul 5.6 04:25:06 10° WNW 04:26:36 12° NW 04:28:05 10° NNW visible
08 Jul 4.4 02:57:12 39° NNE 02:57:12 39° NNE 02:59:45 10° NNE visible
